Vertical_Velocity
4 5 1 0 -0 4 -3 2 -1 -2 -2 -3 0 -4 -5 -2 -4 -0 -4 -5 -5 -9 -4 -4 -1 -1 73 0 -1 -13 6 25 15 14 9 6 -1 2 3 10 -2 8 63 22
3 4 -1 -0 4 0 -3 2 -2 -4 -5 -2 0 -2 -5 -2 2 0 3 -7 -5 -10 -3 -12 -3 4 -1 -4 -2 0 12 34 3 2 30 5 -1 0 -1 15 5 18 14 15
2 1 -1 2 3 1 -2 -2 -2 -3 -3 1 -5 -3 -4 -0 -2 -7 -6 -1 -4 -9 -4 -4 -8 -0 -4 1 -1 -5 10 5 -0 2 2 2 1 5 -1 8 15 20 31 4
2 3 -0 2 2 -1 -3 -3 -4 0 4 -2 -2 -2 -7 -4 -3 0 -3 -4 -4 -5 -5 -7 -1 6 -2 -1 -2 -2 -1 -2 -4 7 9 -2 -1 14 14 35 6 4 24 5
2 3 0 2 1 -2 -2 -3 -2 -1 -1 1 -2 -2 -4 -1 -0 -4 -0 -4 -4 -6 -4 -4 3 -3 -5 4 2 -1 6 -7 30 -8 21 15 23 10 5 2 3 -2 1 -3
-0 2 2 0 -1 -3 -0 3 0 0 -3 -1 -5 -1 -4 -5 -2 -1 1 -2 -2 -4 -2 -5 -3 -2 1 -2 1 2 2 3 8 12 8 5 3 5 -4 -0 1 1 1 1
1 0 2 -1 1 -2 1 -5 3 0 -0 -2 -5 -1 -0 -5 -0 -2 -4 1 -2 2 -3 -7 -2 -2 0 -1 -2 1 0 1 -4 6 -1 6 1 4 0 0 0 -0 -3 -2
2 -1 2 -0 0 -0 3 -1 1 -2 -2 2 -4 -5 -1 -5 5 -4 1 -4 -1 2 -1 -2 3 -4 -1 -5 -1 0 3 -1 -5 7 1 5 -1 -0 -3 -1 -2 -3 -1 -3
0 -2 1 2 2 -2 3 -4 2 1 -4 -2 -1 -3 -3 -2 0 -2 2 0 -3 1 1 -6 1 2 1 -2 0 -2 1 7 2 -2 -2 -3 -1 -1 0 -1 -0 0 -1 1
1 1 1 0 1 2 0 -3 1 -1 3 -2 -3 -6 -0 -3 -1 -1 -3 -1 -3 3 -0 -2 0 1 2 -2 1 -3 1 2 7 5 6 2 2 1 -4 -2 -3 -2 -2 -2
0 -0 2 -0 1 -2 2 -2 1 -1 -5 2 -3 -3 -2 -2 -2 -3 -4 -0 -3 -0 3 1 -3 -5 1 2 -3 -3 -0 0 -3 -3 -2 1 -2 -1 -0 -2 -2 -2 -1 1
-1 2 1 -2 0 2 1 1 2 -3 -0 -3 -0 -2 -1 -3 -3 -4 -3 -0 -3 -2 3 2 0 -4 -6 3 1 2 1 -2 -2 -0 -2 -0 -1 -2 -1 -2 -1 -1 -1 -1
-0 3 -1 0 -0 0 -1 4 -2 1 -2 -4 1 -2 -1 -3 -3 -4 -2 -2 -0 -4 -3 2 3 -1 -0 -2 -2 -0 -2 -1 0 -2 -1 -1 -1 -0 -1 -1 -0 -1 -2 -1
1 2 -2 1 -2 3 0 3 -3 -2 -1 -2 0 0 -3 -2 -2 -3 -3 -1 -1 -2 -2 -2 1 0 3 -2 -2 -0 -2 -2 -2 -4 -3 -2 -2 -2 -1 -1 -2 -1 -3 -3
1 1 -2 3 -2 1 -0 1 -0 -1 1 -2 -1 -2 -4 -4 -2 -3 -3 -2 -1 -0 -1 -1 -1 -0 3 2 3 -4 -4 -3 -1 0 -1 -2 -2 -1 -0 0 1 -1 -1 -3
1 -0 1 -0 -2 1 3 -2 -2 1 -0 -2 -2 -3 -6 -3 -1 -2 -2 -3 -2 -2 -1 -0 -1 -0 -3 -0 1 1 1 -1 -1 -2 -2 -1 -2 -1 -0 -1 -0 -0 -1 -2
2 -2 2 0 -0 3 -0 -0 -0 0 1 -1 -1 -3 -3 -1 -1 -0 -1 -0 -1 -3 -2 -1 0 1 -2 -3 4 -0 0 2 2 1 1 -1 -1 -3 -4 -2 3 -0 1 -1
-0 3 0 1 2 -2 -1 0 -1 -1 -2 -1 -1 -1 -2 -1 -1 -0 -2 -1 -1 -1 -1 -1 -1 1 -2 5 -0 -1 -1 -2 -2 -0 -5 0 1 -1 -2 -1 -1 1 -0 -1
2 1 -3 -0 4 2 -1 -3 -0 -2 0 0 -1 -2 -3 -0 -2 -1 -1 -2 -1 -1 0 1 1 -0 -1 0 0 1 2 -0 1 4 -0 -2 -2 -3 -1 -1 2 -0 -1 -1
-2 -3 1 10 4 -5 -1 -5 -3 -0 2 3 -1 -1 -2 -1 -1 -1 -1 -1 -1 0 -2 1 -1 -3 -3 -0 5 -3 0 2 5 -4 -2 -1 -1 1 -0 -2 1 -2 -1 -0
-1 3 4 6 0 -2 -6 -4 -3 1 4 1 -4 -0 -1 -1 -1 -1 -1 -2 -1 -0 -1 -1 1 -2 2 1 1 -2 -3 1 -1 -1 4 5 1 -2 -2 -1 -0 -0 -1 -1
3 7 5 4 -2 -2 -3 -7 -2 2 2 -0 -3 1 -2 -1 -1 -3 -2 -3 -1 -2 -3 -2 -2 -0 1 1 2 1 2 0 1 0 -1 -1 -2 -1 -1 -1 -1 -1 -1 -1
3 -1 2 -0 -6 -10 -7 -4 -3 6 7 -4 -1 -1 -2 -2 0 -0 -4 -2 -1 -3 -2 -1 -1 1 1 0 1 0 -1 -0 -0 0 -2 -2 -1 0 0 1 1 -0 -1 -1
3 1 -6 -3 -9 -6 1 8 11 1 -2 -2 -1 -2 -2 0 -2 -3 -2 0 -3 -1 -1 -1 1 1 -1 -0 -0 -0 0 -1 -1 -1 -0 0 0 2 1 -0 0 1 1 -0
-2 -3 -12 -1 -2 2 1 4 9 0 -3 -0 -1 -2 -2 -1 -3 -2 -1 -1 -1 0 -1 0 0 -0 -0 0 0 -1 -1 -0 0 0 0 1 0 0 1 0 -0 -0 -1 -2
-7 0 -7 1 1 1 3 -1 7 -1 -1 1 -1 -3 -2 -1 -2 -1 -2 -2 3 2 1 1 1 1 -1 -0 -0 -0 -0 0 0 0 1 1 1 1 -1 -1 -2 -2 -3 -4
-7 -4 -4 -1 2 -1 1 3 7 0 -4 -1 -5 -1 -3 -3 -4 -1 -3 8 -4 -0 -1 0 -0 -0 0 0 1 1 1 1 1 1 1 0 -0 -1 -3 -2 -2 -5 -3 -3
Height
5549 5556 5562 5568 5575 5581 5586 5590 5593 5595 5597 5598 5594 5590 5587 5582 5577 5573 5571 5568 5565 5565 5563 5560 5554 5550 5547 5547 5545 5545 5544 5544 5551 5556 5558 5561 5563 5568 5574 5577 5584 5589 5589 5594
5542 5549 5555 5562 5569 5575 5580 5583 5587 5589 5591 5590 5588 5585 5582 5578 5575 5573 5570 5567 5564 5563 5562 5562 5557 5552 5551 5550 5549 5549 5550 5550 5554 5557 5561 5563 5566 5570 5574 5577 5582 5586 5589 5590
5535 5543 5549 5557 5565 5570 5574 5578 5582 5584 5585 5584 5583 5580 5578 5575 5573 5571 5568 5566 5565 5562 5560 5559 5557 5555 5555 5553 5552 5553 5553 5553 5555 5558 5561 5563 5566 5569 5573 5579 5581 5587 5584 5586
5529 5537 5545 5552 5559 5564 5569 5573 5576 5579 5580 5579 5578 5576 5575 5572 5571 5570 5568 5567 5564 5563 5561 5558 5557 5557 5557 5555 5553 5555 5555 5556 5557 5557 5560 5563 5566 5570 5571 5572 5579 5579 5579 5581
5524 5531 5539 5547 5553 5559 5563 5567 5570 5573 5574 5574 5574 5573 5571 5569 5568 5568 5567 5566 5564 5563 5561 5559 5558 5559 5556 5555 5555 5557 5556 5558 5557 5557 5562 5564 5565 5568 5570 5573 5577 5579 5579 5582
5518 5527 5534 5541 5547 5553 5557 5562 5565 5568 5569 5569 5570 5569 5567 5567 5564 5564 5564 5564 5564 5563 5561 5559 5558 5558 5557 5556 5556 5557 5557 5558 5560 5558 5557 5563 5567 5568 5571 5573 5575 5578 5579 5582
5513 5521 5529 5536 5542 5548 5552 5557 5560 5563 5563 5564 5565 5565 5564 5562 5560 5560 5560 5561 5562 5563 5560 5559 5558 5557 5557 5556 5556 5557 5558 5558 5561 5561 5563 5565 5566 5571 5573 5574 5576 5579 5580 5581
5509 5516 5523 5531 5537 5542 5547 5551 5555 5557 5558 5560 5561 5561 5560 5558 5558 5557 5557 5556 5560 5561 5561 5560 5558 5556 5556 5556 5555 5556 5556 5558 5560 5564 5564 5567 5568 5571 5573 5575 5577 5577 5578 5580
5504 5512 5518 5526 5532 5537 5542 5547 5550 5553 5555 5556 5557 5556 5556 5555 5554 5554 5554 5554 5556 5558 5559 5559 5558 5558 5557 5556 5556 5555 5556 5557 5561 5563 5565 5567 5568 5569 5572 5573 5575 5576 5577 5578
5499 5507 5514 5520 5526 5532 5538 5541 5545 5548 5550 5552 5553 5552 5552 5552 5551 5551 5550 5551 5552 5555 5557 5558 5559 5558 5559 5558 5557 5556 5556 5558 5559 5562 5564 5566 5567 5569 5569 5572 5576 5574 5575 5575
5495 5502 5509 5515 5522 5528 5533 5537 5541 5544 5546 5548 5548 5548 5548 5548 5548 5547 5547 5548 5548 5550 5553 5556 5558 5558 5558 5558 5558 5558 5559 5560 5561 5563 5564 5567 5567 5569 5570 5571 5570 5571 5572 5573
5491 5498 5504 5510 5518 5523 5529 5534 5537 5539 5542 5544 5544 5544 5545 5544 5544 5544 5544 5544 5544 5546 5549 5552 5555 5557 5558 5559 5558 5559 5561 5562 5562 5564 5564 5564 5565 5566 5567 5568 5568 5568 5569 5570
5486 5493 5500 5507 5513 5519 5525 5528 5532 5536 5538 5539 5540 5540 5541 5541 5541 5541 5541 5541 5542 5542 5544 5547 5549 5552 5555 5557 5558 5559 5560 5560 5561 5562 5563 5563 5564 5564 5564 5565 5565 5565 5565 5566
5483 5490 5496 5504 5509 5515 5519 5524 5528 5531 5533 5535 5537 5537 5538 5538 5538 5538 5538 5538 5538 5539 5540 5542 5544 5547 5549 5552 5554 5556 5558 5559 5560 5560 5560 5561 5561 5561 5561 5562 5561 5561 5561 5561
5478 5486 5493 5499 5506 5510 5515 5520 5523 5527 5531 5531 5533 5534 5535 5535 5535 5535 5535 5535 5535 5535 5536 5538 5541 5543 5545 5546 5549 5551 5553 5555 5557 5557 5557 5557 5557 5557 5557 5557 5557 5557 5557 5557
5475 5482 5489 5496 5501 5506 5511 5516 5520 5523 5526 5528 5529 5531 5531 5532 5533 5534 5534 5533 5532 5532 5532 5534 5536 5538 5541 5542 5544 5546 5548 5550 5551 5552 5552 5553 5552 5553 5553 5553 5553 5552 5552 5552
5472 5479 5486 5492 5498 5503 5507 5512 5516 5519 5522 5524 5526 5528 5529 5530 5531 5532 5533 5532 5532 5531 5530 5531 5532 5534 5536 5539 5541 5542 5542 5543 5545 5546 5548 5548 5548 5548 5549 5549 5549 5548 5547 5547
5469 5476 5483 5489 5494 5498 5503 5508 5512 5515 5518 5520 5523 5525 5527 5528 5529 5530 5531 5531 5531 5530 5529 5530 5530 5531 5532 5534 5536 5537 5539 5541 5542 5544 5544 5544 5544 5544 5544 5544 5542 5541 5540 5541
5466 5473 5478 5484 5490 5495 5500 5504 5508 5511 5515 5518 5520 5522 5524 5526 5527 5528 5529 5529 5529 5529 5529 5528 5528 5528 5528 5530 5531 5532 5535 5537 5539 5541 5542 5541 5541 5540 5540 5539 5538 5537 5535 5535
5461 5468 5474 5481 5486 5490 5496 5500 5503 5506 5510 5515 5517 5519 5521 5523 5524 5525 5527 5527 5527 5527 5527 5526 5525 5524 5524 5525 5527 5527 5530 5533 5536 5538 5539 5538 5538 5538 5536 5534 5533 5532 5531 5530
5457 5464 5470 5477 5481 5487 5492 5495 5499 5503 5509 5512 5513 5516 5518 5520 5521 5522 5524 5523 5523 5523 5523 5522 5521 5519 5520 5520 5522 5524 5527 5531 5534 5535 5536 5536 5534 5532 5530 5529 5527 5526 5524 5522
5453 5460 5465 5471 5477 5482 5487 5491 5494 5501 5506 5509 5510 5513 5515 5516 5518 5519 5521 5521 5521 5520 5519 5519 5518 5519 5519 5520 5521 5522 5523 5527 5530 5531 5532 5531 5529 5527 5526 5524 5522 5520 5517 5515
5446 5453 5459 5466 5471 5476 5482 5487 5493 5500 5504 5505 5506 5509 5511 5513 5515 5517 5518 5518 5518 5518 5517 5516 5517 5518 5519 5521 5522 5523 5524 5526 5527 5528 5527 5526 5525 5523 5522 5519 5517 5514 5511 5507
5441 5447 5453 5460 5467 5475 5481 5487 5493 5497 5500 5501 5502 5504 5508 5511 5513 5514 5516 5516 5516 5515 5515 5515 5516 5517 5519 5521 5522 5523 5523 5524 5524 5524 5524 5523 5521 5519 5517 5514 5510 5507 5503 5499
5436 5443 5450 5459 5465 5472 5477 5484 5490 5493 5496 5498 5499 5502 5506 5508 5510 5512 5513 5514 5514 5514 5515 5514 5515 5517 5518 5519 5520 5521 5521 5522 5522 5522 5521 5519 5517 5515 5512 5508 5504 5500 5495 5489
5434 5441 5449 5456 5462 5468 5474 5481 5485 5489 5492 5494 5497 5500 5503 5505 5506 5508 5509 5512 5513 5514 5513 5514 5515 5516 5517 5518 5519 5519 5520 5520 5519 5518 5517 5515 5512 5509 5505 5501 5496 5491 5485 5479
5432 5439 5446 5451 5458 5464 5471 5476 5481 5485 5488 5491 5493 5497 5499 5500 5502 5503 5505 5509 5510 5511 5512 5513 5514 5515 5516 5517 5517 5517 5517 5516 5515 5514 5512 5509 5506 5502 5497 5492 5487 5481 5474 5467